Вернуться в каталог

SL-8 R/B

АктивенPO
NORAD 11379·ROCKET BODY·🇷🇺 Russia

Запущен May 31, 1979 с Plesetsk Cosmodrome

Loading…

Ближайшие Пролёты (ближайшие 24 часа)

TLE

СвежийSource: Space-Track

Эпоха: Sep 14, 2026, 21:58 UTC

1 11379U 79046B   26257.91551019  .00000040  00000-0  24142-4 0  9991
2 11379  82.9455 316.2803 0022706 103.6083  18.5577 13.77781546338452

Отслеживайте SL-8 R/B в реальном времени с AllMySat

Download on the App Store